1998-067QT

Last updated on Fri Dec 06 2019 00:02:12 GMT+0000 (Coordinated Universal Time)

1 44788U 98067QT 19339.41439355 .00009039 00000-0 16210-3 0 9994 2 44788 51.6441 232.3383 0005483 3.4286 356.6706 15.50703478 3085
UTC large
Height (km)
Speed (km/s)
/
Latitude / Longitude
Inclination (degrees)
Orbital Period (minutes)
Azimuth
Elevation
Range (km)
Doppler Factor

Next 0 passes for location: London (51.5072 / 0.1276)

Sorry there are no passes over London.